Other Public Products
Issued by NWS Grand Forks, ND

Home | Current Version | Previous Version | Text Only | Print | Product List | Glossary Off
Versions: 1 2 3 4 5 6 7 8 9 10 11 12 13 14 15 16 17 18 19 20 21 22 23 24 25 26 27 28 29 30 31 32 33 34 35 36 37 38 39 40 41 42 43 44 45 46 47 48 49 50

000
FPUS83 KFGF 201631
OPUFGF
PRAIRIE TO PINES WEATHER ROUNDUP
NATIONAL WEATHER SERVICE EASTERN NORTH DAKOTA/GRAND FORKS ND
1100 AM CDT FRI OCT 20 2017

 **SATELLITE DATA USED TO AUGMENT SKY COVER AT AUTOMATED STATIONS**
 *****  WEATHER ACROSS EASTERN NORTH DAKOTA  *****

CITY           SKY/WX    TMP DP  RH WIND       PRES   REMARKS
GRAND FORKS    FAIR      65  51  60 S23G33    29.51F
GRAND FORKS AF FAIR      63  49  60 S15G26    29.51F
GRAND CITY NWS NOT AVBL
BUXTON           N/A     66  49  55 S22         N/A
DEVILS LAKE    FAIR      58  48  69 SE13      29.46F
FARGO          FAIR      66  50  56 S16G30    29.57F
WAHPETON ARPT  NOT AVBL
$$

 *****  WEATHER ACROSS CENTRAL AND WESTERN NORTH DAKOTA  *****

CITY           SKY/WX    TMP DP  RH WIND       PRES   REMARKS
JAMESTOWN      FAIR      61  48  62 S21G31    29.49F
BISMARCK       FAIR      65  48  54 S9        29.43F
MINOT          FAIR      55  42  61 SE5       29.36F
MINOT AFB      FAIR      53  41  63 S9        29.34F
GARRISON         N/A     55  44  66 S16       29.38F
WILLISTON      FAIR      50  34  54 S5        29.34F
DICKINSON      FAIR      67  32  27 S8        29.38F
HETTINGER      FAIR      63  32  31 S7        29.44F
$$

 *****  OTHER OBSERVATIONS NORTHEAST NORTH DAKOTA  *****

CITY           SKY/WX    TMP DP  RH WIND       PRES   REMARKS
WALHALLA       FAIR     N/A N/A N/A S17       29.47F
LANGDON        FAIR      63  52  67 S20G26    29.46F
CAVALIER       FAIR      57  50  77 S17G23    29.48F
GRAFTON        FAIR      64  50  59 S24       29.51F
CANDO          FAIR      59  48  67 SE15      29.44F
FORT TOTTEN      N/A     61  48  62 S15       29.95S
ROLLA          FAIR      57  45  62 S14       29.41F
RUGBY          FAIR      57  46  67 SE12      29.39F
 ***** THE ABOVE OBSERVATIONS ARE NON NWS ARE NOT QUALITY
        CONTROLLED AND MAY MIS-REPORT RAIN FOR SNOW...
$$

 *****  OTHER OBSERVATIONS SOUTHEAST NORTH DAKOTA *****

CITY           SKY/WX    TMP DP  RH WIND       PRES   REMARKS
COOPERSTOWN    FAIR      66  48  52 S22G32    29.50F
VALLEY CITY    FAIR      66  48  52 S22G35    29.53F
OAKES          NOT AVBL
GWINNER        SUNNY     68  50  52 S17G24    29.57F
SHEYENNE NWR     N/A     69  50  50 S14       29.95S
BUFFALO          N/A     67  43  42 S20         N/A
WYNDMERE       NOT AVBL
 ***** THE ABOVE OBSERVATIONS ARE NON NWS ARE NOT QUALITY
       CONTROLLED AND MAY MIS-REPORT RAIN FOR SNOW...
$$

  *****  WEATHER ACROSS NORTHERN MINNESOTA  *****

CITY           SKY/WX    TMP DP  RH WIND       PRES   REMARKS
FLAG ISLAND    FAIR      54  46  76 S9        29.60F
WARROAD        FAIR      64  52  63 SE9       29.60F
ROSEAU         FAIR      66  54  63 S12       29.58F
HALLOCK        FAIR      66  50  55 S23       29.50F
THF RVR FALLS  FAIR      68  49  50 S21G26    29.59F
HALSTAD          N/A     68  50  53 S26         N/A
FOSSTON        FAIR      70  46  43 S18       29.61F
BAUDETTE       FAIR      64  49  57 S12       29.64F
WASKISH        FAIR      66  50  55 SE12      29.64F
CROOKSTON      FAIR      70  48  46 S26       29.55F
$$
  *****  WEATHER ACROSS CENTRAL AND WEST MINNESOTA  *****

CITY           SKY/WX    TMP DP  RH WIND       PRES   REMARKS
BEMIDJI        FAIR      66  49  54 S15       29.66F
PARK RAPIDS    FAIR      63  50  62 S14       29.70F
WADENA         FAIR      64  50  59 S16       29.70F
DETROIT LAKES  FAIR      64  50  59 S18       29.65F
MOORHEAD       FAIR      66  48  52 S23G30    29.59F
FERGUS FALLS   FAIR      64  50  59 S23       29.65F
ELBOW LAKE     FAIR      64  51  62 S23       29.68F
MORRIS MN      FAIR      66  52  59 S16G25    29.69F
STAPLES        FAIR      64  48  55 S16G24    29.73F
WHEATON        FAIR      66  46  48 S22G29    29.65F
$$
  *****  WEATHER ELSEWHERE ACROSS MINNESOTA  *****

CITY           SKY/WX    TMP DP  RH WIND       PRES   REMARKS
DULUTH         FAIR      63  50  62 S15       29.83S
INTRNTL FALLS  FAIR      65  46  50 SE9       29.69F
ELY            FAIR      64  46  52 S12       29.78F
CLOQUET        FAIR      64  46  52 S10G18    29.82S
BRAINERD       FAIR      63  49  60 S17       29.77F
HIBBING        FAIR      62  49  62 S12       29.78F
ALEXANDRIA     FAIR      63  49  60 S18       29.75F
SAINT CLOUD    FAIR      65  52  62 S14       29.81F
MINNEAPOLIS    FAIR      68  52  56 S14G22    29.88F
$$

  *****  WEATHER ACROSS SOUTH DAKOTA  *****

CITY           SKY/WX    TMP DP  RH WIND       PRES   REMARKS
SIOUX FALLS    FAIR      65  53  65 S23G33    29.76F
BROOKINGS      FAIR      62  51  67 S20       29.73F
WATERTOWN      FAIR      59  50  72 S21       29.68F
HURON          FAIR      64  50  60 S17G31    29.64F
SISSETON         N/A     68  50  52 S23G29    29.61F
ABERDEEN       FAIR      62  49  62 S18G31    29.58F
MITCHELL       FAIR      66  51  58 S18G32    29.67F
PIERRE         FAIR      63  49  60 S18       29.52F
MOBRIDGE       FAIR      67  49  52 S18       29.45F
RAPID CITY     FAIR      68  34  28 S10       29.52F
$$

  *****  SOME WEATHER IN NEARBY STATES *****

CITY           SKY/WX    TMP DP  RH WIND       PRES   REMARKS
GLASGOW MT     FAIR      54  33  45 SE14      29.30F
GREAT FALLS MT FAIR      61  21  21 S14       29.26F
CHEYENNE WY    FAIR      65  33  30 W13       29.76F
SCOTTSBLUFF NE FAIR      53  42  66 VRB6      29.66F
OMAHA NE       PTSUNNY   65  54  67 S17G23    29.92F
DES MOINES IA  PTSUNNY   69  53  56 S12G23    30.01F
DAVENPORT IA   FAIR      70  53  54 S12       30.14F
CHICAGO IL     FAIR      69  51  52 SW8       30.16F
EAU CLAIRE WI  FAIR      67  51  56 S14       29.95F
LA CROSSE WI   FAIR      67  53  61 S9        30.00F
$$

  *****  SOME NATIONAL WEATHER *****

CITY           SKY/WX    TMP DP  RH WIND       PRES   REMARKS
LA GUARDIA NY  FAIR      69  34  27 NW10      30.15F
RALEIGH NC     FAIR      70  47  43 NE5       30.28F
ATLANTA GA     FAIR      71  47  42 CALM      30.29F
NEW ORLEANS LA CLOUDY    77  69  76 E9        30.15S
OKLAHOMA CITY  FAIR      70  57  63 S20G28    30.03F
ALBUQUERQUE NM FAIR      56  49  77 S10       30.04S
SALT LAKE CITY FAIR      69  31  24 S28G36    29.59R
LOS ANGELES CA FAIR      66  57  72 W10       29.93R
BOISE ID       LGT RAIN  42  32  67 W13G23    29.77R
SEATTLE WA     LGT RAIN  46  44  93 S12       29.71R
$$

*** WEATHER ACROSS MANITOBA...SASKATCHEWAN AND ONTARIO ***
                ***ONTARIO***

CITY           SKY/WX    TMP DP  RH WIND       PRES   REMARKS
GERALDTON      PTSUNNY   59  43  55 S6        29.87S
THUNDER BAY    SUNNY     55  43  62 E6        29.85F
SIOUX LOOKOUT  MOSUNNY   57  43  58 S6        29.73F
TORONTO        MOSUNNY   66  39  37 S6        30.23F
BIG TROUT LK   MOSUNNY   37  34  87 SE13G18   29.88S
PICKLE LAKE    MOSUNNY   48  34  57 E6        29.77S
DRYDEN         SUNNY     59  45  58 SE8       29.70F
KENORA         MOSUNNY   59  46  63 SE12      29.64F
$$
                *** MANITOBA***

CITY           SKY/WX    TMP DP  RH WIND       PRES   REMARKS
BRANDON        MOSUNNY   55  41  58 E13       29.40F
DAUPHIN        SUNNY     46  37  71 VRB2      29.41F
ISLAND LAKE    PTSUNNY   41  34  75 E15G21    29.69F
PILOT MOUND      N/A     57  46  67 S17         N/A
THE PAS        CLOUDY    39  34  81 E9        29.48F
THOMPSON       CLOUDY    36  32  87 E12G22    29.71F
WINNIPEG       PTSUNNY   61  48  63 SE12G18   29.49F
LYNN LAKE      CLOUDY    32  32 100 E14       29.64F FOG     WCI  22
CHURCHILL      CLOUDY    34  28  80 SE14      29.97S WCI  24
GILLAM         CLOUDY    34  32  93 E7G18     29.85F
$$
                ***SASKATCHEWAN***

CITY           SKY/WX    TMP DP  RH WIND       PRES   REMARKS
ESTEVAN        MOSUNNY   54  37  54 SE6       29.33F
KINDERSLEY     CLOUDY    48  37  66 NE7       29.24F
LLOYDMINSTER   CLOUDY    46  36  66 SW10      29.24F
PRINCE ALBERT  CLOUDY    43  36  75 E12       29.34F
REGINA         PTSUNNY   55  30  38 SE15      29.30F
YORKTON        SUNNY     55  36  47 SE7       29.35F



USA.gov is the U.S. government's official web portal to all federal, state and local government web resources and services.